| time (UTC) | temp C | wind direction | speed KPH | gust KPH | rain 1hr cm | rain 24hr cm | rain mn cm | humidity % | barometer mb |
| 20260831011346 | 33 | 199 | 0.0 | 0.0 | 0.00 | 0.00 | 0.00 | 43 | 1013.1 |
| 20260831010837 | 33 | 197 | 0.0 | 0.0 | 0.00 | 0.00 | 0.00 | 42 | 1012.8 |
| 20260831010336 | 33 | 200 | 0.0 | 0.0 | 0.00 | 0.00 | 0.00 | 41 | 1012.8 |
| 20260831005832 | 34 | 197 | 0.0 | 0.0 | 0.00 | 0.00 | 0.00 | 41 | 1012.6 |
| 20260831005328 | 34 | 219 | 0.0 | 0.0 | 0.00 | 0.00 | 0.00 | 41 | 1012.8 |
| 20260831004827 | 34 | 203 | 1.6 | 1.6 | 0.00 | 0.00 | 0.00 | 40 | 1012.8 |
| 20260831004324 | 35 | 277 | 0.0 | 1.6 | 0.00 | 0.00 | 0.00 | 40 | 1012.7 |
| 20260831003819 | 35 | 202 | 0.0 | 0.0 | 0.00 | 0.00 | 0.00 | 40 | 1012.6 |
| 20260831003316 | 35 | 196 | 0.0 | 0.0 | 0.00 | 0.00 | 0.00 | 40 | 1012.6 |
| 20260831002815 | 35 | 212 | 0.0 | 0.0 | 0.00 | 0.00 | 0.00 | 40 | 1012.5 |
| 20260831002314 | 35 | 204 | 0.0 | 0.0 | 0.00 | 0.00 | 0.00 | 40 | 1012.8 |
| 20260831001810 | 35 | 196 | 0.0 | 0.0 | 0.00 | 0.00 | 0.00 | 40 | 1012.9 |
| 20260831001305 | 35 | 198 | 0.0 | 0.0 | 0.00 | 0.00 | 0.00 | 40 | 1012.8 |
| 20260831000803 | 35 | 203 | 0.0 | 1.6 | 0.00 | 0.00 | 0.00 | 40 | 1012.8 |
| 20260831000303 | 35 | 225 | 0.0 | 0.0 | 0.00 | 0.00 | 0.00 | 40 | 1012.9 |
| 20260830235800 | 36 | 209 | 0.0 | 1.6 | 0.00 | 0.00 | 0.00 | 40 | 1012.9 |
| 20260830235255 | 36 | 202 | 0.0 | 0.0 | 0.00 | 0.00 | 0.00 | 39 | 1012.8 |
| 20260830234750 | 36 | 199 | 0.0 | 0.0 | 0.00 | 0.00 | 0.00 | 39 | 1012.8 |
| 20260830234247 | 36 | 231 | 0.0 | 1.6 | 0.00 | 0.00 | 0.00 | 39 | 1012.7 |
| 20260830233742 | 36 | 190 | 0.0 | 1.6 | 0.00 | 0.00 | 0.00 | 39 | 1012.8 |
| 20260830233238 | 36 | 187 | 0.0 | 0.0 | 0.00 | 0.00 | 0.00 | 39 | 1012.9 |
| 20260830232733 | 36 | 193 | 0.0 | 0.0 | 0.00 | 0.00 | 0.00 | 39 | 1013.1 |
| 20260830232229 | 36 | 185 | 0.0 | 0.0 | 0.00 | 0.00 | 0.00 | 38 | 1012.9 |
| 20260830231725 | 36 | 202 | 0.0 | 0.0 | 0.00 | 0.00 | 0.00 | 37 | 1012.9 |
| 20260830231224 | 36 | 190 | 0.0 | 1.6 | 0.00 | 0.00 | 0.00 | 36 | 1013.0 |
| 20260830230719 | 36 | 218 | 0.0 | 0.0 | 0.00 | 0.00 | 0.00 | 37 | 1012.8 |
| 20260830230215 | 37 | 206 | 0.0 | 0.0 | 0.00 | 0.00 | 0.00 | 37 | 1013.0 |
| 20260830225709 | 37 | 208 | 0.0 | 1.6 | 0.00 | 0.00 | 0.00 | 36 | 1013.0 |
| 20260830225209 | 37 | 212 | 0.0 | 0.0 | 0.00 | 0.00 | 0.00 | 36 | 1013.3 |
| 20260830224708 | 37 | 196 | 0.0 | 0.0 | 0.00 | 0.00 | 0.00 | 36 | 1013.1 |
| 20260830224204 | 37 | 191 | 0.0 | 0.0 | 0.00 | 0.00 | 0.00 | 36 | 1013.1 |
| 20260830223701 | 37 | 207 | 0.0 | 0.0 | 0.00 | 0.00 | 0.00 | 35 | 1013.1 |
| 20260830223156 | 38 | 257 | 1.6 | 1.6 | 0.00 | 0.00 | 0.00 | 34 | 1013.1 |
| 20260830222651 | 38 | 216 | 1.6 | 1.6 | 0.00 | 0.00 | 0.00 | 34 | 1013.1 |
| 20260830222146 | 38 | 197 | 0.0 | 0.0 | 0.00 | 0.00 | 0.00 | 34 | 1013.2 |
| 20260830221642 | 38 | 187 | 0.0 | 0.0 | 0.00 | 0.00 | 0.00 | 34 | 1013.0 |
| 20260830221138 | 38 | 183 | 0.0 | 1.6 | 0.00 | 0.00 | 0.00 | 34 | 1012.9 |
| 20260830220633 | 38 | 257 | 1.6 | 1.6 | 0.00 | 0.00 | 0.00 | 33 | 1013.1 |
| 20260830220132 | 38 | 224 | 1.6 | 1.6 | 0.00 | 0.00 | 0.00 | 34 | 1013.1 |
| 20260830215631 | 38 | 179 | 1.6 | 3.2 | 0.00 | 0.00 | 0.00 | 33 | 1013.1 |
| 20260830215126 | 37 | 198 | 0.0 | 1.6 | 0.00 | 0.00 | 0.00 | 35 | 1013.0 |
| 20260830214621 | 37 | 211 | 0.0 | 0.0 | 0.00 | 0.00 | 0.00 | 33 | 1013.2 |
| 20260830214116 | 37 | 185 | 0.0 | 0.0 | 0.00 | 0.00 | 0.00 | 32 | 1013.2 |
| 20260830213615 | 37 | 216 | 0.0 | 0.0 | 0.00 | 0.00 | 0.00 | 33 | 1013.2 |
| 20260830213111 | 37 | 197 | 0.0 | 0.0 | 0.00 | 0.00 | 0.00 | 33 | 1013.3 |
| 20260830212606 | 37 | 202 | 0.0 | 1.6 | 0.00 | 0.00 | 0.00 | 34 | 1013.5 |
| 20260830212101 | 37 | 178 | 1.6 | 1.6 | 0.00 | 0.00 | 0.00 | 34 | 1013.6 |
| 20260830211555 | 37 | 200 | 1.6 | 1.6 | 0.00 | 0.00 | 0.00 | 34 | 1013.3 |
| 20260830211049 | 37 | 185 | 1.6 | 3.2 | 0.00 | 0.00 | 0.00 | 36 | 1013.6 |
| 20260830210544 | 37 | 213 | 0.0 | 1.6 | 0.00 | 0.00 | 0.00 | 34 | 1013.6 |
| 20260830210038 | 37 | 196 | 0.0 | 1.6 | 0.00 | 0.00 | 0.00 | 35 | 1013.6 |
| 20260830205536 | 36 | 184 | 1.6 | 3.2 | 0.00 | 0.00 | 0.00 | 37 | 1013.5 |
| 20260830205032 | 37 | 199 | 1.6 | 1.6 | 0.00 | 0.00 | 0.00 | 35 | 1013.9 |
| 20260830204531 | 38 | 236 | 0.0 | 1.6 | 0.00 | 0.00 | 0.00 | 35 | 1013.9 |
| 20260830204030 | 37 | 183 | 0.0 | 0.0 | 0.00 | 0.00 | 0.00 | 35 | 1013.9 |
| 20260830203527 | 37 | 221 | 0.0 | 0.0 | 0.00 | 0.00 | 0.00 | 34 | 1013.9 |
| 20260830203022 | 37 | 210 | 0.0 | 0.0 | 0.00 | 0.00 | 0.00 | 36 | 1014.0 |
| 20260830202521 | 37 | 154 | 0.0 | 0.0 | 0.00 | 0.00 | 0.00 | 36 | 1014.2 |
| 20260830202017 | 37 | 209 | 0.0 | 0.0 | 0.00 | 0.00 | 0.00 | 36 | 1014.1 |
| 20260830201516 | 37 | 189 | 0.0 | 0.0 | 0.00 | 0.00 | 0.00 | 36 | 1014.3 |
| 20260830201012 | 37 | 192 | 0.0 | 1.6 | 0.00 | 0.00 | 0.00 | 35 | 1014.5 |
| 20260830200507 | 37 | 131 | 0.0 | 0.0 | 0.00 | 0.00 | 0.00 | 36 | 1014.4 |
| 20260830200006 | 37 | 231 | 1.6 | 1.6 | 0.00 | 0.00 | 0.00 | 36 | 1014.5 |
| 20260830195502 | 37 | 190 | 1.6 | 1.6 | 0.00 | 0.00 | 0.00 | 36 | 1014.5 |
| 20260830194959 | 38 | 193 | 1.6 | 1.6 | 0.00 | 0.00 | 0.00 | 35 | 1014.5 |
| 20260830194458 | 37 | 191 | 0.0 | 0.0 | 0.00 | 0.00 | 0.00 | 36 | 1014.5 |
| 20260830193954 | 37 | 194 | 0.0 | 0.0 | 0.00 | 0.00 | 0.00 | 35 | 1014.8 |
| 20260830193452 | 38 | 177 | 0.0 | 1.6 | 0.00 | 0.00 | 0.00 | 35 | 1014.7 |
| 20260830192948 | 37 | 233 | 0.0 | 0.0 | 0.00 | 0.00 | 0.00 | 36 | 1014.9 |
| 20260830192443 | 37 | 176 | 1.6 | 3.2 | 0.00 | 0.00 | 0.00 | 36 | 1014.9 |
| 20260830191938 | 37 | 250 | 0.0 | 0.0 | 0.00 | 0.00 | 0.00 | 36 | 1015.1 |
| 20260830191437 | 37 | 164 | 0.0 | 1.6 | 0.00 | 0.00 | 0.00 | 37 | 1015.1 |
| 20260830190928 | 37 | 185 | 0.0 | 0.0 | 0.00 | 0.00 | 0.00 | 37 | 1015.2 |
| 20260830190423 | 37 | 186 | 1.6 | 3.2 | 0.00 | 0.00 | 0.00 | 37 | 1015.2 |
| 20260830185922 | 37 | 195 | 0.0 | 0.0 | 0.00 | 0.00 | 0.00 | 37 | 1015.3 |
| 20260830185417 | 37 | 252 | 1.6 | 1.6 | 0.00 | 0.00 | 0.00 | 37 | 1015.4 |
| 20260830184912 | 37 | 204 | 1.6 | 1.6 | 0.00 | 0.00 | 0.00 | 37 | 1015.4 |
| 20260830184411 | 37 | 197 | 1.6 | 1.6 | 0.00 | 0.00 | 0.00 | 37 | 1015.4 |
| 20260830183906 | 37 | 245 | 1.6 | 3.2 | 0.00 | 0.00 | 0.00 | 38 | 1015.4 |
| 20260830183405 | 37 | 263 | 1.6 | 3.2 | 0.00 | 0.00 | 0.00 | 38 | 1015.6 |
| 20260830182901 | 37 | 228 | 0.0 | 0.0 | 0.00 | 0.00 | 0.00 | 38 | 1015.6 |
| 20260830182357 | 37 | 219 | 1.6 | 1.6 | 0.00 | 0.00 | 0.00 | 38 | 1015.7 |
| 20260830181853 | 37 | 198 | 0.0 | 0.0 | 0.00 | 0.00 | 0.00 | 38 | 1016.0 |
| 20260830181349 | 37 | 214 | 1.6 | 3.2 | 0.00 | 0.00 | 0.00 | 39 | 1015.7 |
| 20260830180848 | 37 | 211 | 0.0 | 0.0 | 0.00 | 0.00 | 0.00 | 39 | 1015.7 |
| 20260830180343 | 37 | 205 | 0.0 | 0.0 | 0.00 | 0.00 | 0.00 | 40 | 1015.9 |
| 20260830175842 | 37 | 201 | 0.0 | 0.0 | 0.00 | 0.00 | 0.00 | 41 | 1016.1 |
| 20260830175337 | 36 | 194 | 0.0 | 0.0 | 0.00 | 0.00 | 0.00 | 41 | 1016.4 |
| 20260830174832 | 37 | 182 | 1.6 | 3.2 | 0.00 | 0.00 | 0.00 | 40 | 1016.3 |
| 20260830174328 | 36 | 206 | 1.6 | 3.2 | 0.00 | 0.00 | 0.00 | 42 | 1016.5 |
| 20260830173827 | 36 | 188 | 0.0 | 1.6 | 0.00 | 0.00 | 0.00 | 42 | 1016.5 |
| 20260830173323 | 36 | 207 | 0.0 | 0.0 | 0.00 | 0.00 | 0.00 | 42 | 1016.5 |
| 20260830172819 | 36 | 200 | 0.0 | 1.6 | 0.00 | 0.00 | 0.00 | 41 | 1016.7 |
| 20260830172315 | 36 | 188 | 0.0 | 1.6 | 0.00 | 0.00 | 0.00 | 42 | 1016.6 |
| 20260830171810 | 36 | 176 | 0.0 | 1.6 | 0.00 | 0.00 | 0.00 | 43 | 1016.7 |
| 20260830171306 | 36 | 201 | 1.6 | 1.6 | 0.00 | 0.00 | 0.00 | 41 | 1017.0 |
| 20260830170800 | 36 | 193 | 0.0 | 0.0 | 0.00 | 0.00 | 0.00 | 42 | 1016.8 |
| 20260830170300 | 36 | 180 | 1.6 | 3.2 | 0.00 | 0.00 | 0.00 | 43 | 1016.9 |
| 20260830165758 | 36 | 186 | 0.0 | 1.6 | 0.00 | 0.00 | 0.00 | 44 | 1016.9 |
| 20260830165255 | 36 | 217 | 0.0 | 0.0 | 0.00 | 0.00 | 0.00 | 45 | 1017.0 |
| 20260830164751 | 36 | 187 | 0.0 | 1.6 | 0.00 | 0.00 | 0.00 | 45 | 1017.1 |
| 20260830164246 | 36 | 219 | 1.6 | 1.6 | 0.00 | 0.00 | 0.00 | 44 | 1017.2 |
| 20260830163737 | 35 | 192 | 0.0 | 0.0 | 0.00 | 0.00 | 0.00 | 47 | 1017.2 |
| 20260830163233 | 35 | 177 | 1.6 | 3.2 | 0.00 | 0.00 | 0.00 | 47 | 1017.3 |
| 20260830162727 | 35 | 197 | 1.6 | 1.6 | 0.00 | 0.00 | 0.00 | 47 | 1017.4 |
| 20260830162224 | 35 | 178 | 0.0 | 1.6 | 0.00 | 0.00 | 0.00 | 47 | 1017.3 |
| 20260830161719 | 35 | 200 | 0.0 | 1.6 | 0.00 | 0.00 | 0.00 | 48 | 1017.5 |
| 20260830161219 | 34 | 206 | 0.0 | 0.0 | 0.00 | 0.00 | 0.00 | 49 | 1017.4 |
| 20260830160715 | 34 | 244 | 1.6 | 1.6 | 0.00 | 0.00 | 0.00 | 50 | 1017.4 |
| 20260830160214 | 33 | 161 | 1.6 | 1.6 | 0.00 | 0.00 | 0.00 | 50 | 1017.2 |
| 20260830155711 | 33 | 188 | 0.0 | 1.6 | 0.00 | 0.00 | 0.00 | 53 | 1017.5 |
| 20260830155207 | 33 | 207 | 0.0 | 0.0 | 0.00 | 0.00 | 0.00 | 54 | 1017.4 |
| 20260830154656 | 32 | 180 | 0.0 | 0.0 | 0.00 | 0.00 | 0.00 | 55 | 1017.3 |
| 20260830154152 | 32 | 188 | 1.6 | 1.6 | 0.00 | 0.00 | 0.00 | 56 | 1017.4 |
| 20260830153649 | 32 | 190 | 0.0 | 0.0 | 0.00 | 0.00 | 0.00 | 57 | 1017.5 |
| 20260830153148 | 32 | 199 | 0.0 | 0.0 | 0.00 | 0.00 | 0.00 | 59 | 1017.3 |
| 20260830152646 | 31 | 213 | 0.0 | 0.0 | 0.00 | 0.00 | 0.00 | 60 | 1017.4 |
| 20260830152141 | 31 | 206 | 0.0 | 0.0 | 0.00 | 0.00 | 0.00 | 60 | 1017.3 |
| 20260830151636 | 31 | 258 | 0.0 | 0.0 | 0.00 | 0.00 | 0.00 | 61 | 1017.4 |
| 20260830151135 | 31 | 195 | 0.0 | 0.0 | 0.00 | 0.00 | 0.00 | 63 | 1017.5 |
| 20260830150630 | 31 | 185 | 0.0 | 0.0 | 0.00 | 0.00 | 0.00 | 63 | 1017.5 |
| 20260830150125 | 30 | 198 | 0.0 | 0.0 | 0.00 | 0.00 | 0.00 | 63 | 1017.3 |
| 20260830145624 | 30 | 225 | 0.0 | 0.0 | 0.00 | 0.00 | 0.00 | 64 | 1017.4 |
| 20260830145120 | 30 | 199 | 0.0 | 0.0 | 0.00 | 0.00 | 0.00 | 65 | 1017.3 |
| 20260830144615 | 30 | 186 | 0.0 | 0.0 | 0.00 | 0.00 | 0.00 | 65 | 1017.3 |
| 20260830144111 | 30 | 213 | 0.0 | 0.0 | 0.00 | 0.00 | 0.00 | 66 | 1017.4 |
| 20260830143607 | 30 | 202 | 0.0 | 0.0 | 0.00 | 0.00 | 0.00 | 66 | 1017.4 |
| 20260830143105 | 30 | 200 | 0.0 | 0.0 | 0.00 | 0.00 | 0.00 | 67 | 1017.4 |
| 20260830142601 | 29 | 220 | 0.0 | 0.0 | 0.00 | 0.00 | 0.00 | 67 | 1017.4 |
| 20260830142055 | 29 | 201 | 0.0 | 0.0 | 0.00 | 0.00 | 0.00 | 69 | 1017.4 |
| 20260830141550 | 28 | 181 | 0.0 | 0.0 | 0.00 | 0.00 | 0.00 | 70 | 1017.5 |
| 20260830141045 | 28 | 190 | 0.0 | 0.0 | 0.00 | 0.00 | 0.00 | 70 | 1017.6 |
| 20260830140545 | 28 | 204 | 0.0 | 0.0 | 0.00 | 0.00 | 0.00 | 70 | 1017.4 |
| 20260830140040 | 28 | 203 | 0.0 | 0.0 | 0.00 | 0.00 | 0.00 | 71 | 1017.6 |
| 20260830135535 | 28 | 194 | 0.0 | 0.0 | 0.00 | 0.00 | 0.00 | 71 | 1017.7 |
| 20260830135030 | 28 | 194 | 0.0 | 0.0 | 0.00 | 0.00 | 0.00 | 72 | 1017.3 |
| 20260830134526 | 27 | 192 | 0.0 | 0.0 | 0.00 | 0.00 | 0.00 | 72 | 1017.5 |
| 20260830134021 | 27 | 210 | 0.0 | 0.0 | 0.00 | 0.00 | 0.00 | 72 | 1017.3 |
| 20260830133517 | 27 | 194 | 0.0 | 0.0 | 0.00 | 0.00 | 0.00 | 72 | 1017.3 |
| 20260830133012 | 27 | 210 | 0.0 | 0.0 | 0.00 | 0.00 | 0.00 | 73 | 1017.2 |
| 20260830132508 | 27 | 202 | 0.0 | 0.0 | 0.00 | 0.00 | 0.00 | 74 | 1017.1 |
| 20260830132003 | 27 | 197 | 0.0 | 0.0 | 0.00 | 0.00 | 0.00 | 73 | 1017.1 |
| 20260830131502 | 26 | 201 | 0.0 | 0.0 | 0.00 | 0.00 | 0.00 | 74 | 1017.1 |
| 20260830130956 | 26 | 212 | 0.0 | 0.0 | 0.00 | 0.00 | 0.00 | 74 | 1017.2 |
| 20260830130452 | 26 | 199 | 0.0 | 0.0 | 0.00 | 0.00 | 0.00 | 74 | 1017.0 |
| 20260830125950 | 26 | 195 | 0.0 | 0.0 | 0.00 | 0.00 | 0.00 | 74 | 1017.1 |
| 20260830125446 | 26 | 203 | 0.0 | 0.0 | 0.00 | 0.00 | 0.00 | 75 | 1017.2 |
| 20260830124944 | 26 | 206 | 0.0 | 0.0 | 0.00 | 0.00 | 0.00 | 75 | 1017.1 |
| 20260830124439 | 26 | 202 | 0.0 | 0.0 | 0.00 | 0.00 | 0.00 | 75 | 1016.9 |
| 20260830123935 | 26 | 202 | 0.0 | 0.0 | 0.00 | 0.00 | 0.00 | 75 | 1016.9 |
| 20260830123432 | 26 | 198 | 0.0 | 0.0 | 0.00 | 0.00 | 0.00 | 75 | 1016.7 |
| 20260830122929 | 25 | 195 | 0.0 | 0.0 | 0.00 | 0.00 | 0.00 | 75 | 1016.8 |
| 20260830122429 | 25 | 197 | 0.0 | 0.0 | 0.00 | 0.00 | 0.00 | 75 | 1016.6 |
| 20260830121924 | 25 | 205 | 0.0 | 0.0 | 0.00 | 0.00 | 0.00 | 75 | 1016.6 |
| 20260830121419 | 25 | 204 | 0.0 | 0.0 | 0.00 | 0.00 | 0.00 | 75 | 1016.5 |
| 20260830120914 | 25 | 201 | 0.0 | 0.0 | 0.00 | 0.00 | 0.00 | 74 | 1016.4 |
| 20260830120410 | 26 | 196 | 0.0 | 0.0 | 0.00 | 0.00 | 0.00 | 74 | 1016.1 |
| 20260830115905 | 26 | 202 | 0.0 | 0.0 | 0.00 | 0.00 | 0.00 | 73 | 1016.3 |
| 20260830115401 | 26 | 202 | 0.0 | 0.0 | 0.00 | 0.00 | 0.00 | 73 | 1016.1 |
| 20260830114857 | 26 | 202 | 0.0 | 0.0 | 0.00 | 0.00 | 0.00 | 73 | 1015.9 |
| 20260830114353 | 26 | 205 | 0.0 | 0.0 | 0.00 | 0.00 | 0.00 | 72 | 1016.1 |
| 20260830113848 | 26 | 203 | 0.0 | 0.0 | 0.00 | 0.00 | 0.00 | 72 | 1015.9 |
| 20260830113343 | 26 | 208 | 0.0 | 0.0 | 0.00 | 0.00 | 0.00 | 71 | 1015.9 |
| 20260830112839 | 26 | 208 | 0.0 | 0.0 | 0.00 | 0.00 | 0.00 | 71 | 1015.8 |
| 20260830112334 | 26 | 200 | 0.0 | 0.0 | 0.00 | 0.00 | 0.00 | 71 | 1015.7 |
| 20260830111830 | 26 | 204 | 0.0 | 0.0 | 0.00 | 0.00 | 0.00 | 70 | 1015.6 |
| 20260830111326 | 26 | 199 | 0.0 | 0.0 | 0.00 | 0.00 | 0.00 | 70 | 1015.6 |
| 20260830110825 | 26 | 199 | 0.0 | 0.0 | 0.00 | 0.00 | 0.00 | 69 | 1015.7 |
| 20260830110322 | 26 | 198 | 0.0 | 0.0 | 0.00 | 0.00 | 0.00 | 69 | 1015.5 |
| 20260830105820 | 26 | 205 | 0.0 | 0.0 | 0.00 | 0.00 | 0.00 | 69 | 1015.6 |
| 20260830105317 | 26 | 199 | 0.0 | 0.0 | 0.00 | 0.00 | 0.00 | 68 | 1015.5 |
| 20260830104813 | 26 | 202 | 0.0 | 0.0 | 0.00 | 0.00 | 0.00 | 68 | 1015.5 |
| 20260830104310 | 27 | 204 | 0.0 | 0.0 | 0.00 | 0.00 | 0.00 | 67 | 1015.5 |
| 20260830103808 | 27 | 202 | 0.0 | 0.0 | 0.00 | 0.00 | 0.00 | 67 | 1015.4 |
| 20260830103305 | 27 | 197 | 0.0 | 0.0 | 0.00 | 0.00 | 0.00 | 67 | 1015.6 |
| 20260830102802 | 27 | 201 | 0.0 | 0.0 | 0.00 | 0.00 | 0.00 | 66 | 1015.6 |
| 20260830102258 | 27 | 192 | 0.0 | 0.0 | 0.00 | 0.00 | 0.00 | 66 | 1015.5 |
| 20260830101754 | 27 | 203 | 0.0 | 0.0 | 0.00 | 0.00 | 0.00 | 66 | 1015.3 |
| 20260830101249 | 27 | 196 | 0.0 | 0.0 | 0.00 | 0.00 | 0.00 | 66 | 1015.3 |
| 20260830100748 | 27 | 196 | 0.0 | 0.0 | 0.00 | 0.00 | 0.00 | 65 | 1015.5 |
| 20260830100243 | 27 | 198 | 0.0 | 0.0 | 0.00 | 0.00 | 0.00 | 65 | 1015.3 |
| 20260830095743 | 27 | 199 | 0.0 | 0.0 | 0.00 | 0.00 | 0.00 | 65 | 1015.3 |
| 20260830095239 | 27 | 199 | 0.0 | 0.0 | 0.00 | 0.00 | 0.00 | 64 | 1015.3 |
| 20260830094734 | 27 | 199 | 0.0 | 0.0 | 0.00 | 0.00 | 0.00 | 64 | 1015.2 |
| 20260830094231 | 27 | 199 | 0.0 | 0.0 | 0.00 | 0.00 | 0.00 | 63 | 1015.5 |
| 20260830093730 | 27 | 201 | 0.0 | 0.0 | 0.00 | 0.00 | 0.00 | 63 | 1015.4 |
| 20260830093227 | 27 | 202 | 0.0 | 0.0 | 0.00 | 0.00 | 0.00 | 63 | 1015.3 |
| 20260830092726 | 27 | 203 | 0.0 | 0.0 | 0.00 | 0.00 | 0.00 | 63 | 1015.3 |
| 20260830092218 | 27 | 203 | 0.0 | 0.0 | 0.00 | 0.00 | 0.00 | 63 | 1015.3 |
| 20260830091713 | 27 | 198 | 0.0 | 0.0 | 0.00 | 0.00 | 0.00 | 63 | 1015.2 |
| 20260830091212 | 27 | 198 | 0.0 | 0.0 | 0.00 | 0.00 | 0.00 | 62 | 1015.2 |
| 20260830090707 | 27 | 198 | 0.0 | 0.0 | 0.00 | 0.00 | 0.00 | 62 | 1015.2 |
| 20260830090203 | 27 | 198 | 0.0 | 0.0 | 0.00 | 0.00 | 0.00 | 62 | 1015.3 |
| 20260830085702 | 27 | 199 | 0.0 | 0.0 | 0.00 | 0.00 | 0.00 | 60 | 1015.2 |
| 20260830085158 | 28 | 199 | 0.0 | 0.0 | 0.00 | 0.00 | 0.00 | 60 | 1015.4 |
| 20260830084653 | 28 | 192 | 0.0 | 0.0 | 0.00 | 0.00 | 0.00 | 59 | 1015.0 |
| 20260830084148 | 28 | 204 | 0.0 | 0.0 | 0.00 | 0.00 | 0.00 | 60 | 1015.3 |
| 20260830083643 | 28 | 207 | 0.0 | 0.0 | 0.00 | 0.00 | 0.00 | 59 | 1015.4 |
| 20260830083138 | 28 | 202 | 0.0 | 0.0 | 0.00 | 0.00 | 0.00 | 59 | 1015.3 |
| 20260830082632 | 28 | 203 | 0.0 | 0.0 | 0.00 | 0.00 | 0.00 | 58 | 1015.3 |
| 20260830082129 | 28 | 204 | 0.0 | 0.0 | 0.00 | 0.00 | 0.00 | 59 | 1015.2 |
| 20260830081624 | 27 | 197 | 0.0 | 0.0 | 0.00 | 0.00 | 0.00 | 60 | 1015.4 |
| 20260830081123 | 27 | 197 | 0.0 | 0.0 | 0.00 | 0.00 | 0.00 | 59 | 1015.3 |
| 20260830080618 | 27 | 201 | 0.0 | 0.0 | 0.00 | 0.00 | 0.00 | 59 | 1015.4 |
| 20260830080114 | 27 | 201 | 0.0 | 0.0 | 0.00 | 0.00 | 0.00 | 59 | 1015.3 |
| 20260830075613 | 27 | 198 | 0.0 | 0.0 | 0.00 | 0.00 | 0.00 | 60 | 1015.4 |
| 20260830075108 | 28 | 198 | 0.0 | 0.0 | 0.00 | 0.00 | 0.00 | 59 | 1015.2 |
| 20260830074604 | 28 | 199 | 0.0 | 0.0 | 0.00 | 0.00 | 0.00 | 58 | 1015.3 |
| 20260830074100 | 28 | 199 | 0.0 | 0.0 | 0.00 | 0.00 | 0.00 | 57 | 1015.2 |
| 20260830073556 | 28 | 201 | 0.0 | 0.0 | 0.00 | 0.00 | 0.00 | 57 | 1015.2 |
| 20260830073055 | 28 | 199 | 0.0 | 0.0 | 0.00 | 0.00 | 0.00 | 57 | 1015.3 |
| 20260830072551 | 28 | 195 | 0.0 | 0.0 | 0.00 | 0.00 | 0.00 | 57 | 1015.2 |
| 20260830072046 | 28 | 195 | 0.0 | 0.0 | 0.00 | 0.00 | 0.00 | 57 | 1015.2 |
| 20260830071542 | 28 | 201 | 0.0 | 0.0 | 0.00 | 0.00 | 0.00 | 58 | 1015.3 |
| 20260830071039 | 28 | 200 | 0.0 | 0.0 | 0.00 | 0.00 | 0.00 | 58 | 1015.3 |
| 20260830070535 | 28 | 190 | 0.0 | 0.0 | 0.00 | 0.00 | 0.00 | 58 | 1015.5 |
| 20260830070034 | 28 | 198 | 0.0 | 0.0 | 0.00 | 0.00 | 0.00 | 58 | 1015.4 |
| 20260830065533 | 28 | 187 | 0.0 | 0.0 | 0.00 | 0.00 | 0.00 | 57 | 1015.5 |
| 20260830065032 | 28 | 199 | 0.0 | 0.0 | 0.00 | 0.00 | 0.00 | 57 | 1015.2 |
| 20260830064532 | 28 | 202 | 0.0 | 0.0 | 0.00 | 0.00 | 0.00 | 57 | 1015.4 |
| 20260830064027 | 28 | 196 | 0.0 | 0.0 | 0.00 | 0.00 | 0.00 | 58 | 1015.4 |
| 20260830063522 | 27 | 189 | 0.0 | 0.0 | 0.00 | 0.00 | 0.00 | 58 | 1015.4 |
| 20260830063022 | 27 | 168 | 0.0 | 0.0 | 0.00 | 0.00 | 0.00 | 59 | 1015.4 |
| 20260830062521 | 27 | 202 | 0.0 | 0.0 | 0.00 | 0.00 | 0.00 | 59 | 1015.2 |
| 20260830062016 | 27 | 208 | 0.0 | 0.0 | 0.00 | 0.00 | 0.00 | 59 | 1015.3 |
| 20260830061510 | 27 | 199 | 0.0 | 0.0 | 0.00 | 0.00 | 0.00 | 58 | 1015.2 |
| 20260830061007 | 28 | 201 | 0.0 | 0.0 | 0.00 | 0.00 | 0.00 | 59 | 1015.3 |
| 20260830060457 | 28 | 201 | 0.0 | 0.0 | 0.00 | 0.00 | 0.00 | 58 | 1015.2 |
| 20260830055953 | 28 | 201 | 0.0 | 0.0 | 0.00 | 0.00 | 0.00 | 58 | 1015.3 |
| 20260830055449 | 28 | 202 | 0.0 | 0.0 | 0.00 | 0.00 | 0.00 | 57 | 1015.1 |
| 20260830054944 | 28 | 202 | 0.0 | 0.0 | 0.00 | 0.00 | 0.00 | 56 | 1015.1 |
| 20260830054439 | 28 | 202 | 0.0 | 0.0 | 0.00 | 0.00 | 0.00 | 55 | 1015.0 |
| 20260830053935 | 28 | 202 | 0.0 | 0.0 | 0.00 | 0.00 | 0.00 | 54 | 1015.1 |
| 20260830053431 | 29 | 202 | 0.0 | 0.0 | 0.00 | 0.00 | 0.00 | 53 | 1015.0 |
| 20260830052929 | 29 | 202 | 0.0 | 0.0 | 0.00 | 0.00 | 0.00 | 52 | 1015.2 |
| 20260830052425 | 29 | 202 | 0.0 | 0.0 | 0.00 | 0.00 | 0.00 | 51 | 1015.4 |
| 20260830051921 | 30 | 202 | 0.0 | 0.0 | 0.00 | 0.00 | 0.00 | 51 | 1015.2 |
| 20260830051416 | 30 | 202 | 0.0 | 0.0 | 0.00 | 0.00 | 0.00 | 50 | 1015.1 |
| 20260830050915 | 30 | 202 | 0.0 | 0.0 | 0.00 | 0.00 | 0.00 | 50 | 1015.1 |
| 20260830050410 | 30 | 201 | 0.0 | 0.0 | 0.00 | 0.00 | 0.00 | 50 | 1015.2 |
| 20260830045909 | 30 | 201 | 0.0 | 0.0 | 0.00 | 0.00 | 0.00 | 49 | 1015.1 |
| 20260830045403 | 30 | 201 | 0.0 | 0.0 | 0.00 | 0.00 | 0.00 | 49 | 1015.1 |
| 20260830044902 | 30 | 197 | 0.0 | 0.0 | 0.00 | 0.00 | 0.00 | 49 | 1015.3 |
| 20260830044358 | 30 | 197 | 0.0 | 0.0 | 0.00 | 0.00 | 0.00 | 49 | 1015.0 |
| 20260830043852 | 30 | 204 | 0.0 | 0.0 | 0.00 | 0.00 | 0.00 | 49 | 1015.3 |
| 20260830043347 | 30 | 210 | 0.0 | 0.0 | 0.00 | 0.00 | 0.00 | 48 | 1015.1 |
| 20260830042845 | 30 | 203 | 0.0 | 0.0 | 0.00 | 0.00 | 0.00 | 48 | 1015.1 |
| 20260830042340 | 31 | 204 | 0.0 | 0.0 | 0.00 | 0.00 | 0.00 | 48 | 1015.1 |
| 20260830041838 | 31 | 204 | 0.0 | 0.0 | 0.00 | 0.00 | 0.00 | 47 | 1015.1 |
| 20260830041332 | 31 | 206 | 0.0 | 0.0 | 0.00 | 0.00 | 0.00 | 46 | 1015.1 |
| 20260830040828 | 31 | 206 | 0.0 | 0.0 | 0.00 | 0.00 | 0.00 | 46 | 1015.1 |
| 20260830040324 | 31 | 210 | 0.0 | 0.0 | 0.00 | 0.00 | 0.00 | 46 | 1014.9 |
| 20260830035823 | 31 | 211 | 0.0 | 0.0 | 0.00 | 0.00 | 0.00 | 45 | 1014.8 |
| 20260830035321 | 31 | 206 | 0.0 | 0.0 | 0.00 | 0.00 | 0.00 | 45 | 1015.1 |
| 20260830034817 | 31 | 211 | 0.0 | 0.0 | 0.00 | 0.00 | 0.00 | 45 | 1015.0 |
| 20260830034312 | 31 | 199 | 0.0 | 0.0 | 0.00 | 0.00 | 0.00 | 45 | 1015.1 |
| 20260830033808 | 31 | 220 | 0.0 | 0.0 | 0.00 | 0.00 | 0.00 | 45 | 1014.9 |
| 20260830033307 | 31 | 200 | 0.0 | 0.0 | 0.00 | 0.00 | 0.00 | 45 | 1014.9 |
| 20260830032803 | 31 | 194 | 0.0 | 0.0 | 0.00 | 0.00 | 0.00 | 45 | 1014.9 |
| 20260830032257 | 32 | 195 | 0.0 | 0.0 | 0.00 | 0.00 | 0.00 | 45 | 1014.8 |
| 20260830031752 | 32 | 188 | 0.0 | 0.0 | 0.00 | 0.00 | 0.00 | 45 | 1014.7 |
| 20260830031248 | 32 | 203 | 0.0 | 0.0 | 0.00 | 0.00 | 0.00 | 44 | 1014.8 |
| 20260830030744 | 32 | 203 | 0.0 | 0.0 | 0.00 | 0.00 | 0.00 | 44 | 1014.7 |
| 20260830030239 | 32 | 202 | 0.0 | 0.0 | 0.00 | 0.00 | 0.00 | 44 | 1014.6 |
| 20260830025738 | 32 | 201 | 0.0 | 0.0 | 0.00 | 0.00 | 0.00 | 44 | 1014.6 |
| 20260830025231 | 32 | 198 | 0.0 | 0.0 | 0.00 | 0.00 | 0.00 | 44 | 1014.6 |
| 20260830024731 | 32 | 192 | 0.0 | 0.0 | 0.00 | 0.00 | 0.00 | 44 | 1014.4 |
| 20260830024226 | 32 | 204 | 0.0 | 0.0 | 0.00 | 0.00 | 0.00 | 44 | 1014.5 |
| 20260830023723 | 32 | 204 | 0.0 | 0.0 | 0.00 | 0.00 | 0.00 | 43 | 1014.4 |
| 20260830023218 | 32 | 204 | 0.0 | 0.0 | 0.00 | 0.00 | 0.00 | 44 | 1014.4 |
| 20260830022717 | 32 | 204 | 0.0 | 0.0 | 0.00 | 0.00 | 0.00 | 44 | 1014.4 |
| 20260830022213 | 32 | 200 | 0.0 | 0.0 | 0.00 | 0.00 | 0.00 | 44 | 1014.5 |
| 20260830021713 | 32 | 200 | 0.0 | 0.0 | 0.00 | 0.00 | 0.00 | 45 | 1014.4 |
| 20260830021208 | 32 | 201 | 0.0 | 0.0 | 0.00 | 0.00 | 0.00 | 45 | 1014.1 |
| 20260830020707 | 32 | 203 | 0.0 | 0.0 | 0.00 | 0.00 | 0.00 | 45 | 1014.0 |
| 20260830020202 | 32 | 203 | 0.0 | 0.0 | 0.00 | 0.00 | 0.00 | 45 | 1014.4 |
| 20260830015701 | 32 | 202 | 0.0 | 0.0 | 0.00 | 0.00 | 0.00 | 44 | 1014.0 |
| 20260830015158 | 32 | 202 | 0.0 | 0.0 | 0.00 | 0.00 | 0.00 | 43 | 1014.0 |
| 20260830014653 | 32 | 203 | 0.0 | 0.0 | 0.00 | 0.00 | 0.00 | 43 | 1014.1 |
| 20260830014149 | 32 | 203 | 0.0 | 0.0 | 0.00 | 0.00 | 0.00 | 43 | 1013.9 |
| 20260830013643 | 33 | 203 | 0.0 | 0.0 | 0.00 | 0.00 | 0.00 | 43 | 1013.9 |
| 20260830013139 | 33 | 202 | 0.0 | 0.0 | 0.00 | 0.00 | 0.00 | 41 | 1013.9 |
| 20260830012633 | 33 | 202 | 0.0 | 0.0 | 0.00 | 0.00 | 0.00 | 42 | 1013.9 |
| 20260830012130 | 33 | 209 | 0.0 | 0.0 | 0.00 | 0.00 | 0.00 | 40 | 1013.7 |